| time (UTC) | temp F | wind direction | speed MPH | gust MPH | rain 1hr in | rain 24hr in | rain mn in | humidity % | barometer mb |
| 20260901133533 | 71 | 62 | 0.0 | 1.0 | 0.00 | 0.00 | 0.00 | 57 | 1019.9 |
| 20260901133030 | 71 | 62 | 0.0 | 1.0 | 0.00 | 0.00 | 0.00 | 56 | 1020.0 |
| 20260901132528 | 71 | 62 | 0.0 | 2.0 | 0.00 | 0.00 | 0.00 | 56 | 1019.9 |
| 20260901132028 | 71 | 62 | 0.0 | 2.0 | 0.00 | 0.00 | 0.00 | 57 | 1019.9 |
| 20260901131539 | 71 | 62 | 0.0 | 0.0 | 0.00 | 0.00 | 0.00 | 58 | 1019.8 |
| 20260901131028 | 71 | 62 | 0.0 | 0.0 | 0.00 | 0.00 | 0.00 | 57 | 1019.8 |
| 20260901130528 | 71 | 62 | 0.0 | 0.0 | 0.00 | 0.00 | 0.00 | 56 | 1019.8 |
| 20260901130025 | 71 | 62 | 0.0 | 0.0 | 0.00 | 0.00 | 0.00 | 56 | 1019.7 |
| 20260901125524 | 71 | 62 | 0.0 | 4.0 | 0.00 | 0.00 | 0.00 | 55 | 1019.6 |
| 20260901125025 | 71 | 62 | 0.0 | 4.0 | 0.00 | 0.00 | 0.00 | 55 | 1019.6 |
| 20260901124523 | 71 | 286 | 0.0 | 1.0 | 0.00 | 0.00 | 0.00 | 55 | 1019.5 |
| 20260901124023 | 71 | 286 | 0.0 | 0.0 | 0.00 | 0.00 | 0.00 | 56 | 1019.5 |
| 20260901123522 | 71 | 286 | 0.0 | 0.0 | 0.00 | 0.00 | 0.00 | 56 | 1019.4 |
| 20260901123031 | 72 | 286 | 0.0 | 0.0 | 0.00 | 0.00 | 0.00 | 56 | 1019.5 |
| 20260901122522 | 71 | 286 | 0.0 | 0.0 | 0.00 | 0.00 | 0.00 | 57 | 1019.4 |
| 20260901122021 | 71 | 286 | 0.0 | 0.0 | 0.00 | 0.00 | 0.00 | 56 | 1019.4 |
| 20260901121523 | 72 | 286 | 0.0 | 0.0 | 0.00 | 0.00 | 0.00 | 56 | 1019.3 |
| 20260901121020 | 71 | 286 | 0.0 | 0.0 | 0.00 | 0.00 | 0.00 | 56 | 1019.3 |
| 20260901120520 | 71 | 286 | 0.0 | 0.0 | 0.00 | 0.00 | 0.00 | 56 | 1019.3 |
| 20260901120019 | 72 | 286 | 0.0 | 0.0 | 0.00 | 0.00 | 0.00 | 56 | 1019.4 |
| 20260901115518 | 72 | 286 | 0.0 | 0.0 | 0.00 | 0.00 | 0.00 | 54 | 1019.3 |
| 20260901115018 | 72 | 286 | 0.0 | 2.0 | 0.00 | 0.00 | 0.00 | 54 | 1019.3 |
| 20260901114534 | 72 | 286 | 0.0 | 2.0 | 0.00 | 0.00 | 0.00 | 54 | 1019.3 |
| 20260901114016 | 72 | 286 | 0.0 | 2.0 | 0.00 | 0.00 | 0.00 | 54 | 1019.2 |
| 20260901113514 | 72 | 286 | 0.0 | 5.0 | 0.00 | 0.00 | 0.00 | 54 | 1019.2 |
| 20260901113020 | 73 | 290 | 0.0 | 5.0 | 0.00 | 0.00 | 0.00 | 53 | 1019.2 |
| 20260901112513 | 73 | 286 | 1.0 | 7.0 | 0.00 | 0.00 | 0.00 | 53 | 1019.2 |
| 20260901112013 | 73 | 236 | 2.0 | 7.0 | 0.00 | 0.00 | 0.00 | 53 | 1019.2 |
| 20260901111513 | 73 | 281 | 3.0 | 5.0 | 0.00 | 0.00 | 0.00 | 52 | 1019.2 |
| 20260901111011 | 73 | 27 | 0.0 | 1.0 | 0.00 | 0.00 | 0.00 | 51 | 1019.0 |
| 20260901110511 | 74 | 27 | 0.0 | 2.0 | 0.00 | 0.00 | 0.00 | 50 | 1019.0 |
| 20260901110010 | 74 | 27 | 0.0 | 5.0 | 0.00 | 0.00 | 0.00 | 50 | 1019.0 |
| 20260901105510 | 74 | 47 | 0.0 | 5.0 | 0.00 | 0.00 | 0.00 | 50 | 1018.8 |
| 20260901105009 | 74 | 34 | 1.0 | 5.0 | 0.00 | 0.00 | 0.00 | 50 | 1018.8 |
| 20260901104509 | 74 | 34 | 1.0 | 5.0 | 0.00 | 0.00 | 0.00 | 50 | 1018.8 |
| 20260901104009 | 74 | 28 | 0.0 | 2.0 | 0.00 | 0.00 | 0.00 | 50 | 1018.8 |
| 20260901103509 | 74 | 47 | 0.0 | 4.0 | 0.00 | 0.00 | 0.00 | 50 | 1018.9 |
| 20260901103012 | 74 | 59 | 1.0 | 4.0 | 0.00 | 0.00 | 0.00 | 50 | 1019.0 |
| 20260901102508 | 74 | 56 | 0.0 | 5.0 | 0.00 | 0.00 | 0.00 | 50 | 1019.0 |
| 20260901102006 | 74 | 28 | 0.0 | 5.0 | 0.00 | 0.00 | 0.00 | 49 | 1019.0 |
| 20260901101505 | 74 | 49 | 0.0 | 4.0 | 0.00 | 0.00 | 0.00 | 50 | 1019.1 |
| 20260901101006 | 74 | 47 | 0.0 | 1.0 | 0.00 | 0.00 | 0.00 | 49 | 1019.1 |
| 20260901100507 | 74 | 61 | 0.0 | 4.0 | 0.00 | 0.00 | 0.00 | 50 | 1019.1 |
| 20260901100004 | 74 | 53 | 0.0 | 4.0 | 0.00 | 0.00 | 0.00 | 50 | 1019.1 |
| 20260901095504 | 75 | 47 | 0.0 | 4.0 | 0.00 | 0.00 | 0.00 | 49 | 1019.2 |
| 20260901095005 | 75 | 57 | 1.0 | 4.0 | 0.00 | 0.00 | 0.00 | 49 | 1019.2 |
| 20260901094504 | 75 | 43 | 0.0 | 4.0 | 0.00 | 0.00 | 0.00 | 49 | 1019.2 |
| 20260901094003 | 75 | 46 | 0.0 | 4.0 | 0.00 | 0.00 | 0.00 | 49 | 1019.2 |
| 20260901093503 | 75 | 10 | 0.0 | 4.0 | 0.00 | 0.00 | 0.00 | 50 | 1019.1 |
| 20260901093003 | 75 | 26 | 1.0 | 4.0 | 0.00 | 0.00 | 0.00 | 50 | 1019.1 |
| 20260901092502 | 75 | 26 | 1.0 | 5.0 | 0.00 | 0.00 | 0.00 | 50 | 1019.2 |
| 20260901092002 | 75 | 27 | 1.0 | 5.0 | 0.00 | 0.00 | 0.00 | 50 | 1019.3 |
| 20260901091504 | 75 | 9 | 0.0 | 4.0 | 0.00 | 0.00 | 0.00 | 50 | 1019.4 |
| 20260901091001 | 75 | 3 | 0.0 | 6.0 | 0.00 | 0.00 | 0.00 | 50 | 1019.5 |
| 20260901090501 | 75 | 59 | 1.0 | 6.0 | 0.00 | 0.00 | 0.00 | 50 | 1019.4 |
| 20260901090005 | 75 | 34 | 1.0 | 5.0 | 0.00 | 0.00 | 0.00 | 50 | 1019.4 |
| 20260901085602 | 75 | 36 | 1.0 | 7.0 | 0.00 | 0.00 | 0.00 | 50 | 1019.4 |
| 20260901085059 | 75 | 41 | 3.0 | 7.0 | 0.00 | 0.00 | 0.00 | 50 | 1019.4 |
| 20260901084603 | 75 | 40 | 2.0 | 6.0 | 0.00 | 0.00 | 0.00 | 50 | 1019.4 |
| 20260901084100 | 75 | 62 | 0.0 | 2.0 | 0.00 | 0.00 | 0.00 | 51 | 1019.4 |
| 20260901083559 | 75 | 28 | 0.0 | 5.0 | 0.00 | 0.00 | 0.00 | 51 | 1019.3 |
| 20260901083059 | 75 | 19 | 2.0 | 5.0 | 0.00 | 0.00 | 0.00 | 51 | 1019.5 |
| 20260901082558 | 76 | 41 | 1.0 | 3.0 | 0.00 | 0.00 | 0.00 | 51 | 1019.5 |
| 20260901082057 | 76 | 9 | 0.0 | 4.0 | 0.00 | 0.00 | 0.00 | 50 | 1019.5 |
| 20260901081557 | 76 | 17 | 0.0 | 6.0 | 0.00 | 0.00 | 0.00 | 51 | 1019.6 |
| 20260901081058 | 76 | 42 | 1.0 | 6.0 | 0.00 | 0.00 | 0.00 | 51 | 1019.5 |
| 20260901080557 | 76 | 24 | 1.0 | 6.0 | 0.00 | 0.00 | 0.00 | 51 | 1019.5 |
| 20260901080058 | 76 | 52 | 1.0 | 6.0 | 0.00 | 0.00 | 0.00 | 50 | 1019.4 |
| 20260901075557 | 76 | 7 | 2.0 | 6.0 | 0.00 | 0.00 | 0.00 | 50 | 1019.3 |
| 20260901075057 | 76 | 32 | 0.0 | 8.0 | 0.00 | 0.00 | 0.00 | 51 | 1019.4 |
| 20260901074600 | 76 | 47 | 4.0 | 8.0 | 0.00 | 0.00 | 0.00 | 52 | 1019.4 |
| 20260901074055 | 76 | 9 | 3.0 | 7.0 | 0.00 | 0.00 | 0.00 | 52 | 1019.3 |
| 20260901073554 | 76 | 337 | 3.0 | 7.0 | 0.00 | 0.00 | 0.00 | 51 | 1019.3 |
| 20260901073054 | 76 | 58 | 0.0 | 6.0 | 0.00 | 0.00 | 0.00 | 50 | 1019.2 |
| 20260901072553 | 77 | 9 | 0.0 | 10.0 | 0.00 | 0.00 | 0.00 | 48 | 1019.2 |
| 20260901072053 | 77 | 17 | 5.0 | 10.0 | 0.00 | 0.00 | 0.00 | 44 | 1019.1 |
| 20260901071552 | 77 | 13 | 5.0 | 10.0 | 0.00 | 0.00 | 0.00 | 43 | 1019.3 |
| 20260901071050 | 77 | 14 | 3.0 | 8.0 | 0.00 | 0.00 | 0.00 | 43 | 1019.6 |
| 20260901070550 | 77 | 2 | 1.0 | 8.0 | 0.00 | 0.00 | 0.00 | 44 | 1019.6 |
| 20260901070050 | 77 | 47 | 2.0 | 8.0 | 0.00 | 0.00 | 0.00 | 44 | 1019.4 |
| 20260901065549 | 77 | 15 | 4.0 | 8.0 | 0.00 | 0.00 | 0.00 | 44 | 1019.5 |
| 20260901065049 | 77 | 4 | 3.0 | 8.0 | 0.00 | 0.00 | 0.00 | 44 | 1019.7 |
| 20260901064549 | 77 | 340 | 3.0 | 9.0 | 0.00 | 0.00 | 0.00 | 44 | 1019.7 |
| 20260901064047 | 77 | 7 | 3.0 | 11.0 | 0.00 | 0.00 | 0.00 | 45 | 1019.6 |
| 20260901063546 | 77 | 317 | 3.0 | 11.0 | 0.00 | 0.00 | 0.00 | 46 | 1019.7 |
| 20260901063105 | 77 | 310 | 5.0 | 10.0 | 0.00 | 0.00 | 0.00 | 46 | 1019.8 |
| 20260901062544 | 77 | 302 | 5.0 | 14.0 | 0.00 | 0.00 | 0.00 | 46 | 1019.9 |
| 20260901062044 | 77 | 307 | 8.0 | 14.0 | 0.00 | 0.00 | 0.00 | 46 | 1019.9 |
| 20260901061547 | 78 | 334 | 5.0 | 10.0 | 0.00 | 0.00 | 0.00 | 46 | 1019.8 |
| 20260901061041 | 78 | 330 | 3.0 | 10.0 | 0.00 | 0.00 | 0.00 | 46 | 1019.7 |
| 20260901060541 | 78 | 331 | 5.0 | 11.0 | 0.00 | 0.00 | 0.00 | 46 | 1019.7 |
| 20260901060040 | 78 | 346 | 6.0 | 15.0 | 0.00 | 0.00 | 0.00 | 45 | 1019.6 |
| 20260901055539 | 78 | 26 | 8.0 | 15.0 | 0.00 | 0.00 | 0.00 | 45 | 1019.6 |
| 20260901055039 | 78 | 286 | 6.0 | 14.0 | 0.00 | 0.00 | 0.00 | 46 | 1019.4 |
| 20260901054539 | 78 | 333 | 6.0 | 11.0 | 0.00 | 0.00 | 0.00 | 46 | 1019.5 |
| 20260901054039 | 77 | 321 | 6.0 | 11.0 | 0.00 | 0.00 | 0.00 | 48 | 1019.5 |
| 20260901053538 | 77 | 315 | 5.0 | 9.0 | 0.00 | 0.00 | 0.00 | 48 | 1019.6 |
| 20260901053050 | 77 | 340 | 5.0 | 13.0 | 0.00 | 0.00 | 0.00 | 48 | 1019.6 |
| 20260901052540 | 77 | 299 | 6.0 | 13.0 | 0.00 | 0.00 | 0.00 | 48 | 1019.8 |
| 20260901052037 | 77 | 330 | 7.0 | 12.0 | 0.00 | 0.00 | 0.00 | 49 | 1019.8 |
| 20260901051538 | 77 | 294 | 4.0 | 13.0 | 0.00 | 0.00 | 0.00 | 50 | 1019.9 |
| 20260901051039 | 77 | 344 | 6.0 | 16.0 | 0.00 | 0.00 | 0.00 | 50 | 1020.0 |
| 20260901050538 | 77 | 271 | 7.0 | 16.0 | 0.00 | 0.00 | 0.00 | 51 | 1020.1 |
| 20260901050038 | 77 | 342 | 5.0 | 14.0 | 0.00 | 0.00 | 0.00 | 51 | 1020.1 |
| 20260901045538 | 77 | 312 | 6.0 | 14.0 | 0.00 | 0.00 | 0.00 | 51 | 1020.1 |
| 20260901045037 | 77 | 311 | 6.0 | 14.0 | 0.00 | 0.00 | 0.00 | 51 | 1020.2 |
| 20260901044540 | 77 | 344 | 5.0 | 16.0 | 0.00 | 0.00 | 0.00 | 52 | 1020.2 |
| 20260901044036 | 76 | 323 | 7.0 | 18.0 | 0.00 | 0.00 | 0.00 | 52 | 1020.1 |
| 20260901043535 | 76 | 290 | 6.0 | 18.0 | 0.00 | 0.00 | 0.00 | 53 | 1020.1 |
| 20260901043034 | 77 | 239 | 9.0 | 16.0 | 0.00 | 0.00 | 0.00 | 52 | 1020.0 |
| 20260901042539 | 77 | 232 | 7.0 | 16.0 | 0.00 | 0.00 | 0.00 | 51 | 1020.0 |
| 20260901042033 | 77 | 242 | 5.0 | 19.0 | 0.00 | 0.00 | 0.00 | 50 | 1019.8 |
| 20260901041536 | 78 | 227 | 8.0 | 19.0 | 0.00 | 0.00 | 0.00 | 50 | 1019.8 |
| 20260901041032 | 78 | 286 | 6.0 | 14.0 | 0.00 | 0.00 | 0.00 | 49 | 1019.7 |
| 20260901040532 | 78 | 286 | 7.0 | 14.0 | 0.00 | 0.00 | 0.00 | 49 | 1019.6 |
| 20260901040033 | 78 | 305 | 6.0 | 16.0 | 0.00 | 0.00 | 0.00 | 48 | 1019.6 |
| 20260901035531 | 78 | 232 | 8.0 | 16.0 | 0.00 | 0.00 | 0.00 | 48 | 1019.6 |
| 20260901035033 | 79 | 218 | 6.0 | 14.0 | 0.00 | 0.00 | 0.00 | 47 | 1019.5 |
| 20260901034537 | 79 | 253 | 5.0 | 14.0 | 0.00 | 0.00 | 0.00 | 47 | 1019.5 |
| 20260901034029 | 79 | 227 | 6.0 | 14.0 | 0.00 | 0.00 | 0.00 | 47 | 1019.3 |
| 20260901033527 | 79 | 267 | 5.0 | 12.0 | 0.00 | 0.00 | 0.00 | 46 | 1019.2 |
| 20260901033029 | 80 | 226 | 4.0 | 15.0 | 0.00 | 0.00 | 0.00 | 46 | 1019.1 |
| 20260901032525 | 80 | 251 | 10.0 | 15.0 | 0.00 | 0.00 | 0.00 | 45 | 1018.7 |
| 20260901032024 | 80 | 232 | 8.0 | 20.0 | 0.00 | 0.00 | 0.00 | 45 | 1018.6 |
| 20260901031529 | 81 | 213 | 9.0 | 20.0 | 0.00 | 0.00 | 0.00 | 44 | 1018.4 |
| 20260901031021 | 81 | 217 | 9.0 | 19.0 | 0.00 | 0.00 | 0.00 | 42 | 1018.3 |
| 20260901030521 | 82 | 227 | 9.0 | 18.0 | 0.00 | 0.00 | 0.00 | 41 | 1018.1 |
| 20260901030020 | 82 | 159 | 7.0 | 14.0 | 0.00 | 0.00 | 0.00 | 40 | 1018.0 |
| 20260901025521 | 82 | 195 | 7.0 | 12.0 | 0.00 | 0.00 | 0.00 | 37 | 1017.9 |
| 20260901025021 | 82 | 211 | 5.0 | 14.0 | 0.00 | 0.00 | 0.00 | 38 | 1017.6 |
| 20260901024522 | 82 | 138 | 6.0 | 14.0 | 0.00 | 0.00 | 0.00 | 38 | 1017.6 |
| 20260901024023 | 82 | 184 | 5.0 | 15.0 | 0.00 | 0.00 | 0.00 | 37 | 1017.4 |
| 20260901023524 | 84 | 169 | 8.0 | 15.0 | 0.00 | 0.00 | 0.00 | 35 | 1017.1 |
| 20260901023021 | 84 | 148 | 3.0 | 7.0 | 0.00 | 0.00 | 0.00 | 34 | 1016.9 |
| 20260901022521 | 84 | 157 | 1.0 | 10.0 | 0.00 | 0.00 | 0.00 | 34 | 1016.6 |
| 20260901022119 | 84 | 178 | 5.0 | 10.0 | 0.00 | 0.00 | 0.00 | 34 | 1016.5 |
| 20260901021522 | 84 | 196 | 2.0 | 8.0 | 0.00 | 0.00 | 0.00 | 35 | 1016.1 |
| 20260901021019 | 84 | 204 | 0.0 | 10.0 | 0.00 | 0.00 | 0.00 | 35 | 1015.9 |
| 20260901020519 | 84 | 144 | 6.0 | 11.0 | 0.00 | 0.00 | 0.00 | 34 | 1016.0 |
| 20260901020022 | 84 | 216 | 6.0 | 11.0 | 0.00 | 0.00 | 0.00 | 35 | 1015.7 |
| 20260901015523 | 84 | 334 | 3.0 | 14.0 | 0.00 | 0.00 | 0.00 | 35 | 1015.2 |
| 20260901015018 | 84 | 323 | 5.0 | 14.0 | 0.00 | 0.00 | 0.00 | 35 | 1015.2 |
| 20260901014518 | 85 | 292 | 7.0 | 20.0 | 0.00 | 0.00 | 0.00 | 34 | 1015.1 |
| 20260901014019 | 86 | 269 | 9.0 | 18.0 | 0.00 | 0.00 | 0.00 | 33 | 1015.1 |
| 20260901013519 | 87 | 304 | 4.0 | 18.0 | 0.00 | 0.00 | 0.00 | 29 | 1015.0 |
| 20260901013017 | 88 | 256 | 9.0 | 18.0 | 0.00 | 0.00 | 0.00 | 27 | 1014.9 |
| 20260901012517 | 89 | 258 | 5.0 | 9.0 | 0.00 | 0.00 | 0.00 | 25 | 1014.6 |
| 20260901012016 | 88 | 286 | 0.0 | 4.0 | 0.00 | 0.00 | 0.00 | 27 | 1014.5 |
| 20260901011517 | 89 | 233 | 0.0 | 1.0 | 0.00 | 0.00 | 0.00 | 28 | 1014.3 |
| 20260901011017 | 89 | 233 | 0.0 | 2.0 | 0.00 | 0.00 | 0.00 | 27 | 1014.2 |
| 20260901010519 | 89 | 233 | 0.0 | 2.0 | 0.00 | 0.00 | 0.00 | 26 | 1014.1 |
| 20260901010016 | 89 | 233 | 0.0 | 7.0 | 0.00 | 0.00 | 0.00 | 26 | 1014.1 |
| 20260901005518 | 90 | 224 | 1.0 | 7.0 | 0.00 | 0.00 | 0.00 | 25 | 1014.0 |
| 20260901005015 | 90 | 242 | 1.0 | 8.0 | 0.00 | 0.00 | 0.00 | 26 | 1014.1 |
| 20260901004516 | 90 | 232 | 3.0 | 10.0 | 0.00 | 0.00 | 0.00 | 25 | 1014.2 |
| 20260901004015 | 91 | 242 | 2.0 | 8.0 | 0.00 | 0.00 | 0.00 | 25 | 1014.2 |
| 20260901003515 | 91 | 247 | 3.0 | 11.0 | 0.00 | 0.00 | 0.00 | 25 | 1014.3 |
| 20260901003025 | 92 | 290 | 6.0 | 11.0 | 0.00 | 0.00 | 0.00 | 24 | 1014.4 |
| 20260901002515 | 93 | 232 | 5.0 | 10.0 | 0.00 | 0.00 | 0.00 | 22 | 1014.4 |
| 20260901002015 | 93 | 171 | 5.0 | 9.0 | 0.00 | 0.00 | 0.00 | 21 | 1014.4 |
| 20260901001519 | 93 | 196 | 4.0 | 8.0 | 0.00 | 0.00 | 0.00 | 20 | 1014.3 |
| 20260901001014 | 94 | 215 | 5.0 | 8.0 | 0.00 | 0.00 | 0.00 | 21 | 1014.3 |
| 20260901000514 | 94 | 188 | 4.0 | 8.0 | 0.00 | 0.00 | 0.00 | 21 | 1014.3 |
| 20260901000014 | 94 | 201 | 4.0 | 10.0 | 0.00 | 0.00 | 0.00 | 21 | 1014.3 |
| 20260831235515 | 94 | 200 | 5.0 | 11.0 | 0.00 | 0.00 | 0.00 | 21 | 1014.3 |
| 20260831235017 | 95 | 176 | 6.0 | 11.0 | 0.00 | 0.00 | 0.00 | 21 | 1014.3 |
| 20260831234514 | 95 | 170 | 4.0 | 12.0 | 0.00 | 0.00 | 0.00 | 20 | 1014.2 |
| 20260831234013 | 96 | 188 | 7.0 | 12.0 | 0.00 | 0.00 | 0.00 | 20 | 1014.2 |
| 20260831233514 | 97 | 248 | 3.0 | 11.0 | 0.00 | 0.00 | 0.00 | 20 | 1014.1 |
| 20260831233013 | 96 | 200 | 6.0 | 11.0 | 0.00 | 0.00 | 0.00 | 20 | 1014.1 |
| 20260831232513 | 96 | 192 | 5.0 | 11.0 | 0.00 | 0.00 | 0.00 | 20 | 1014.1 |
| 20260831232013 | 96 | 186 | 6.0 | 11.0 | 0.00 | 0.00 | 0.00 | 20 | 1014.1 |
| 20260831231513 | 97 | 194 | 7.0 | 11.0 | 0.00 | 0.00 | 0.00 | 19 | 1014.1 |
| 20260831231013 | 97 | 170 | 6.0 | 9.0 | 0.00 | 0.00 | 0.00 | 19 | 1014.0 |
| 20260831230513 | 98 | 171 | 4.0 | 9.0 | 0.00 | 0.00 | 0.00 | 19 | 1014.0 |
| 20260831230014 | 98 | 263 | 4.0 | 9.0 | 0.00 | 0.00 | 0.00 | 19 | 1014.1 |
| 20260831225511 | 98 | 207 | 4.0 | 10.0 | 0.00 | 0.00 | 0.00 | 19 | 1014.2 |
| 20260831225011 | 98 | 212 | 6.0 | 10.0 | 0.00 | 0.00 | 0.00 | 19 | 1014.2 |
| 20260831224510 | 98 | 181 | 6.0 | 10.0 | 0.00 | 0.00 | 0.00 | 19 | 1014.2 |
| 20260831224010 | 98 | 211 | 6.0 | 10.0 | 0.00 | 0.00 | 0.00 | 20 | 1014.3 |
| 20260831223509 | 97 | 215 | 6.0 | 10.0 | 0.00 | 0.00 | 0.00 | 18 | 1014.4 |
| 20260831223009 | 98 | 200 | 6.0 | 13.0 | 0.00 | 0.00 | 0.00 | 15 | 1014.5 |
| 20260831222509 | 98 | 170 | 5.0 | 13.0 | 0.00 | 0.00 | 0.00 | 16 | 1014.6 |
| 20260831222008 | 99 | 232 | 7.0 | 11.0 | 0.00 | 0.00 | 0.00 | 17 | 1014.6 |
| 20260831221520 | 99 | 142 | 2.0 | 11.0 | 0.00 | 0.00 | 0.00 | 17 | 1014.6 |
| 20260831221010 | 99 | 173 | 7.0 | 14.0 | 0.00 | 0.00 | 0.00 | 15 | 1014.6 |
| 20260831220509 | 99 | 218 | 7.0 | 14.0 | 0.00 | 0.00 | 0.00 | 15 | 1014.6 |
| 20260831220008 | 99 | 211 | 6.0 | 13.0 | 0.00 | 0.00 | 0.00 | 15 | 1014.7 |
| 20260831215506 | 99 | 161 | 6.0 | 13.0 | 0.00 | 0.00 | 0.00 | 16 | 1014.8 |
| 20260831215006 | 99 | 123 | 5.0 | 11.0 | 0.00 | 0.00 | 0.00 | 16 | 1014.9 |
| 20260831214504 | 99 | 172 | 6.0 | 11.0 | 0.00 | 0.00 | 0.00 | 19 | 1015.0 |
| 20260831214004 | 99 | 165 | 7.0 | 15.0 | 0.00 | 0.00 | 0.00 | 18 | 1015.0 |
| 20260831213502 | 99 | 198 | 8.0 | 15.0 | 0.00 | 0.00 | 0.00 | 18 | 1015.2 |
| 20260831213003 | 100 | 246 | 5.0 | 11.0 | 0.00 | 0.00 | 0.00 | 18 | 1015.2 |
| 20260831212502 | 100 | 219 | 5.0 | 12.0 | 0.00 | 0.00 | 0.00 | 18 | 1015.3 |
| 20260831212102 | 99 | 211 | 5.0 | 12.0 | 0.00 | 0.00 | 0.00 | 19 | 1015.4 |
| 20260831211601 | 99 | 175 | 3.0 | 11.0 | 0.00 | 0.00 | 0.00 | 19 | 1015.4 |
| 20260831211058 | 99 | 216 | 6.0 | 12.0 | 0.00 | 0.00 | 0.00 | 19 | 1015.6 |
| 20260831210559 | 98 | 174 | 7.0 | 12.0 | 0.00 | 0.00 | 0.00 | 20 | 1015.6 |
| 20260831210100 | 98 | 147 | 4.0 | 11.0 | 0.00 | 0.00 | 0.00 | 21 | 1015.6 |
| 20260831205601 | 97 | 200 | 5.0 | 9.0 | 0.00 | 0.00 | 0.00 | 21 | 1015.8 |
| 20260831205058 | 96 | 267 | 1.0 | 7.0 | 0.00 | 0.00 | 0.00 | 22 | 1015.8 |
| 20260831204558 | 97 | 292 | 2.0 | 7.0 | 0.00 | 0.00 | 0.00 | 22 | 1015.9 |
| 20260831204057 | 98 | 169 | 0.0 | 9.0 | 0.00 | 0.00 | 0.00 | 21 | 1016.1 |
| 20260831203557 | 99 | 111 | 4.0 | 9.0 | 0.00 | 0.00 | 0.00 | 22 | 1016.2 |
| 20260831203104 | 98 | 202 | 4.0 | 10.0 | 0.00 | 0.00 | 0.00 | 21 | 1016.3 |
| 20260831202556 | 98 | 195 | 5.0 | 10.0 | 0.00 | 0.00 | 0.00 | 21 | 1016.4 |
| 20260831202056 | 98 | 226 | 5.0 | 10.0 | 0.00 | 0.00 | 0.00 | 21 | 1016.5 |
| 20260831201557 | 98 | 281 | 5.0 | 11.0 | 0.00 | 0.00 | 0.00 | 21 | 1016.6 |
| 20260831201056 | 98 | 238 | 5.0 | 11.0 | 0.00 | 0.00 | 0.00 | 21 | 1016.6 |
| 20260831200557 | 98 | 225 | 5.0 | 8.0 | 0.00 | 0.00 | 0.00 | 21 | 1016.7 |
| 20260831200059 | 98 | 29 | 1.0 | 7.0 | 0.00 | 0.00 | 0.00 | 21 | 1016.7 |
| 20260831195555 | 98 | 312 | 4.0 | 7.0 | 0.00 | 0.00 | 0.00 | 21 | 1016.7 |
| 20260831195057 | 97 | 51 | 0.0 | 8.0 | 0.00 | 0.00 | 0.00 | 22 | 1016.8 |
| 20260831194624 | 97 | 171 | 3.0 | 8.0 | 0.00 | 0.00 | 0.00 | 21 | 1016.9 |
| 20260831194056 | 98 | 238 | 4.0 | 7.0 | 0.00 | 0.00 | 0.00 | 21 | 1017.0 |
| 20260831193557 | 98 | 178 | 1.0 | 5.0 | 0.00 | 0.00 | 0.00 | 22 | 1017.0 |
| 20260831193057 | 97 | 42 | 0.0 | 5.0 | 0.00 | 0.00 | 0.00 | 23 | 1017.1 |
| 20260831192553 | 96 | 32 | 2.0 | 6.0 | 0.00 | 0.00 | 0.00 | 23 | 1017.1 |
| 20260831192053 | 96 | 8 | 2.0 | 6.0 | 0.00 | 0.00 | 0.00 | 21 | 1017.1 |
| 20260831191553 | 97 | 7 | 2.0 | 7.0 | 0.00 | 0.00 | 0.00 | 22 | 1017.2 |
| 20260831191054 | 96 | 153 | 2.0 | 7.0 | 0.00 | 0.00 | 0.00 | 22 | 1017.3 |
| 20260831190553 | 96 | 207 | 3.0 | 5.0 | 0.00 | 0.00 | 0.00 | 22 | 1017.3 |
| 20260831190114 | 95 | 188 | 2.0 | 6.0 | 0.00 | 0.00 | 0.00 | 22 | 1017.3 |
| 20260831185552 | 95 | 166 | 2.0 | 7.0 | 0.00 | 0.00 | 0.00 | 23 | 1017.4 |
| 20260831185050 | 96 | 161 | 3.0 | 7.0 | 0.00 | 0.00 | 0.00 | 22 | 1017.5 |
| 20260831184559 | 96 | 252 | 2.0 | 8.0 | 0.00 | 0.00 | 0.00 | 23 | 1017.4 |
| 20260831184049 | 96 | 213 | 4.0 | 8.0 | 0.00 | 0.00 | 0.00 | 24 | 1017.5 |
| 20260831183548 | 95 | 306 | 3.0 | 6.0 | 0.00 | 0.00 | 0.00 | 22 | 1017.6 |
| 20260831183046 | 95 | 109 | 0.0 | 4.0 | 0.00 | 0.00 | 0.00 | 23 | 1017.6 |
| 20260831182547 | 94 | 66 | 0.0 | 4.0 | 0.00 | 0.00 | 0.00 | 23 | 1017.7 |
| 20260831182045 | 93 | 27 | 0.0 | 5.0 | 0.00 | 0.00 | 0.00 | 24 | 1017.7 |
| 20260831181548 | 94 | 352 | 1.0 | 7.0 | 0.00 | 0.00 | 0.00 | 24 | 1017.7 |
| 20260831181042 | 94 | 323 | 2.0 | 7.0 | 0.00 | 0.00 | 0.00 | 24 | 1017.8 |
| 20260831180542 | 93 | 238 | 1.0 | 4.0 | 0.00 | 0.00 | 0.00 | 24 | 1017.9 |
| 20260831180042 | 93 | 329 | 1.0 | 6.0 | 0.00 | 0.00 | 0.00 | 25 | 1017.9 |
| 20260831175540 | 93 | 227 | 4.0 | 7.0 | 0.00 | 0.00 | 0.00 | 25 | 1017.9 |
| 20260831175040 | 93 | 159 | 1.0 | 7.0 | 0.00 | 0.00 | 0.00 | 25 | 1017.9 |
| 20260831174540 | 92 | 140 | 3.0 | 7.0 | 0.00 | 0.00 | 0.00 | 25 | 1017.9 |
| 20260831174042 | 92 | 143 | 3.0 | 7.0 | 0.00 | 0.00 | 0.00 | 25 | 1018.0 |
| 20260831173537 | 92 | 271 | 2.0 | 5.0 | 0.00 | 0.00 | 0.00 | 25 | 1018.0 |
| 20260831173037 | 92 | 350 | 1.0 | 5.0 | 0.00 | 0.00 | 0.00 | 26 | 1018.1 |
| 20260831172533 | 92 | 329 | 1.0 | 5.0 | 0.00 | 0.00 | 0.00 | 26 | 1018.1 |
| 20260831172033 | 91 | 357 | 1.0 | 5.0 | 0.00 | 0.00 | 0.00 | 26 | 1018.1 |
| 20260831171531 | 91 | 3 | 0.0 | 6.0 | 0.00 | 0.00 | 0.00 | 26 | 1018.1 |
| 20260831171030 | 91 | 321 | 3.0 | 6.0 | 0.00 | 0.00 | 0.00 | 26 | 1018.1 |
| 20260831170531 | 91 | 348 | 0.0 | 2.0 | 0.00 | 0.00 | 0.00 | 27 | 1018.2 |
| 20260831170029 | 90 | 348 | 0.0 | 6.0 | 0.00 | 0.00 | 0.00 | 27 | 1018.2 |
| 20260831165527 | 90 | 281 | 3.0 | 6.0 | 0.00 | 0.00 | 0.00 | 27 | 1018.3 |
| 20260831165027 | 90 | 25 | 1.0 | 5.0 | 0.00 | 0.00 | 0.00 | 28 | 1018.3 |
| 20260831164526 | 89 | 202 | 2.0 | 6.0 | 0.00 | 0.00 | 0.00 | 28 | 1018.3 |
| 20260831164025 | 89 | 173 | 2.0 | 6.0 | 0.00 | 0.00 | 0.00 | 28 | 1018.3 |
| 20260831163525 | 89 | 248 | 4.0 | 6.0 | 0.00 | 0.00 | 0.00 | 29 | 1018.3 |
| 20260831163024 | 88 | 209 | 2.0 | 6.0 | 0.00 | 0.00 | 0.00 | 29 | 1018.3 |
| 20260831162523 | 88 | 208 | 2.0 | 5.0 | 0.00 | 0.00 | 0.00 | 30 | 1018.4 |
| 20260831162022 | 87 | 250 | 2.0 | 5.0 | 0.00 | 0.00 | 0.00 | 30 | 1018.4 |
| 20260831161520 | 87 | 281 | 1.0 | 6.0 | 0.00 | 0.00 | 0.00 | 30 | 1018.4 |
| 20260831161019 | 86 | 297 | 3.0 | 6.0 | 0.00 | 0.00 | 0.00 | 31 | 1018.3 |
| 20260831160519 | 86 | 327 | 1.0 | 6.0 | 0.00 | 0.00 | 0.00 | 31 | 1018.3 |
| 20260831160020 | 86 | 286 | 3.0 | 5.0 | 0.00 | 0.00 | 0.00 | 32 | 1018.2 |
| 20260831155519 | 85 | 330 | 1.0 | 7.0 | 0.00 | 0.00 | 0.00 | 33 | 1018.2 |
| 20260831155016 | 85 | 238 | 2.0 | 7.0 | 0.00 | 0.00 | 0.00 | 33 | 1018.3 |
| 20260831154523 | 85 | 319 | 2.0 | 7.0 | 0.00 | 0.00 | 0.00 | 33 | 1018.2 |
| 20260831154014 | 84 | 294 | 2.0 | 6.0 | 0.00 | 0.00 | 0.00 | 34 | 1018.2 |
| 20260831153512 | 84 | 271 | 1.0 | 5.0 | 0.00 | 0.00 | 0.00 | 34 | 1018.2 |
| 20260831153016 | 84 | 295 | 1.0 | 5.0 | 0.00 | 0.00 | 0.00 | 33 | 1018.1 |
| 20260831152512 | 84 | 286 | 2.0 | 5.0 | 0.00 | 0.00 | 0.00 | 34 | 1018.2 |
| 20260831152012 | 84 | 294 | 2.0 | 5.0 | 0.00 | 0.00 | 0.00 | 34 | 1018.1 |
| 20260831151511 | 83 | 286 | 1.0 | 5.0 | 0.00 | 0.00 | 0.00 | 35 | 1018.1 |
| 20260831151011 | 82 | 310 | 0.0 | 5.0 | 0.00 | 0.00 | 0.00 | 36 | 1018.1 |
| 20260831150511 | 82 | 348 | 2.0 | 5.0 | 0.00 | 0.00 | 0.00 | 35 | 1018.0 |
| 20260831150010 | 82 | 354 | 2.0 | 5.0 | 0.00 | 0.00 | 0.00 | 36 | 1018.0 |
| 20260831145508 | 81 | 355 | 2.0 | 7.0 | 0.00 | 0.00 | 0.00 | 37 | 1018.0 |
| 20260831145012 | 81 | 333 | 2.0 | 7.0 | 0.00 | 0.00 | 0.00 | 37 | 1018.1 |
| 20260831144508 | 81 | 1 | 2.0 | 6.0 | 0.00 | 0.00 | 0.00 | 37 | 1018.0 |
| 20260831144009 | 81 | 316 | 1.0 | 6.0 | 0.00 | 0.00 | 0.00 | 37 | 1018.0 |
| 20260831143507 | 80 | 1 | 1.0 | 5.0 | 0.00 | 0.00 | 0.00 | 37 | 1017.9 |
| 20260831143008 | 80 | 346 | 1.0 | 5.0 | 0.00 | 0.00 | 0.00 | 38 | 1017.9 |
| 20260831142504 | 79 | 359 | 0.0 | 5.0 | 0.00 | 0.00 | 0.00 | 39 | 1017.8 |
| 20260831142003 | 79 | 46 | 0.0 | 4.0 | 0.00 | 0.00 | 0.00 | 39 | 1017.9 |
| 20260831141501 | 78 | 10 | 1.0 | 4.0 | 0.00 | 0.00 | 0.00 | 40 | 1017.9 |
| 20260831141100 | 78 | 45 | 1.0 | 4.0 | 0.00 | 0.00 | 0.00 | 40 | 1017.9 |
| 20260831140558 | 77 | 22 | 1.0 | 4.0 | 0.00 | 0.00 | 0.00 | 41 | 1017.8 |
| 20260831140058 | 77 | 36 | 0.0 | 4.0 | 0.00 | 0.00 | 0.00 | 42 | 1017.8 |
| 20260831135556 | 76 | 50 | 1.0 | 3.0 | 0.00 | 0.00 | 0.00 | 42 | 1017.8 |
| 20260831135056 | 76 | 23 | 0.0 | 3.0 | 0.00 | 0.00 | 0.00 | 42 | 1017.7 |
| 20260831134606 | 75 | 49 | 0.0 | 2.0 | 0.00 | 0.00 | 0.00 | 43 | 1017.7 |
| 20260831134054 | 75 | 49 | 0.0 | 2.0 | 0.00 | 0.00 | 0.00 | 44 | 1017.6 |